Temp
76 78 78 79 78 78 80 79 80 78 78 78 79 78 79 79 79 80 81 73 72 74 75 76 77 78 78 77 76 76 75 74 74 73 72 71 74 75 75 75 74 74 73
77 77 77 76 73 75 79 78 78 78 78 78 77 77 77 79 79 78 81 79 72 73 74 75 77 78 77 78 76 75 75 74 74 74 73 74 74 74 75 75 74 74 73
75 75 77 75 73 72 73 73 73 75 75 77 76 78 78 77 78 77 79 79 77 72 73 75 76 77 77 77 77 76 75 74 74 74 73 74 73 73 74 75 75 74 73
75 75 75 75 74 70 70 70 73 73 75 76 76 77 77 77 77 76 78 79 80 81 77 73 75 76 76 76 76 77 75 74 73 73 73 74 73 73 73 74 74 73 72
74 76 74 72 74 73 70 72 73 73 74 75 75 75 73 75 76 75 76 77 78 79 81 75 74 74 75 75 77 76 75 73 73 73 73 74 73 71 72 73 73 72 71
75 75 72 72 75 74 74 72 72 74 75 73 72 69 71 75 76 74 75 77 78 78 78 73 80 80 74 75 76 77 76 75 74 73 73 73 72 72 72 72 72 71 70
75 74 73 72 74 74 73 72 72 72 72 68 65 68 72 72 72 74 75 76 76 77 77 75 74 75 80 74 74 75 76 75 75 74 72 71 72 72 72 72 71 70 69
74 74 72 71 70 75 73 72 72 67 66 66 66 65 67 69 71 72 74 73 72 77 78 76 67 72 79 81 79 73 75 75 75 75 72 70 70 72 72 71 69 69 68
74 73 73 73 74 75 74 71 70 66 68 64 65 69 65 66 69 68 67 68 67 70 72 75 73 69 76 80 76 76 73 74 75 75 72 70 71 71 71 70 68 68 68
74 74 73 74 74 69 67 69 72 67 68 68 63 66 68 69 64 61 66 67 64 69 71 71 75 75 75 79 76 74 71 71 74 73 72 71 72 70 69 68 67 66 66
75 75 75 74 73 69 69 72 70 69 71 71 69 64 65 69 67 65 60 60 61 68 70 66 66 73 76 78 79 73 68 69 70 70 70 71 70 70 69 68 67 66 66
75 75 75 75 73 71 72 72 71 70 69 68 70 69 70 68 67 64 62 57 58 62 64 64 68 73 77 78 76 69 66 66 65 66 68 69 68 69 69 68 68 69 70
74 72 73 72 73 73 72 72 70 70 69 68 68 70 71 71 72 68 66 61 60 59 62 66 68 72 74 77 76 69 67 64 62 63 64 66 67 68 69 69 69 69 70
75 73 73 73 73 73 72 72 72 72 70 68 68 68 70 71 72 72 67 61 57 58 63 63 68 76 77 75 71 66 73 63 61 62 63 64 65 66 66 67 68 68 68
74 73 73 72 73 73 72 71 72 71 70 64 68 69 70 70 72 71 71 69 65 58 60 63 65 73 76 76 69 73 75 61 62 62 62 62 63 63 64 64 64 65 65
74 73 72 72 72 72 72 71 71 71 69 63 64 69 69 71 71 71 71 65 70 66 63 69 67 69 69 69 69 70 67 63 62 61 62 61 60 60 61 61 62 63 64
72 73 73 73 73 72 72 70 71 71 65 63 61 67 68 69 71 71 71 63 69 69 68 65 67 64 63 64 64 64 64 63 61 60 60 59 58 59 60 59 60 60 61
73 74 74 74 74 73 72 72 71 67 62 61 62 63 69 70 69 69 70 67 70 70 71 63 61 61 61 62 62 62 61 63 62 60 59 58 57 56 56 57 57 57 57
73 74 75 74 74 73 73 72 66 62 62 63 64 64 68 69 68 68 68 66 70 70 71 63 58 60 59 60 59 60 60 60 60 59 57 56 55 55 55 54 55 54 54
74 74 74 75 74 74 72 70 67 64 62 64 62 66 69 70 69 67 65 65 68 69 66 62 58 57 58 59 59 57 56 58 57 59 57 56 56 54 54 55 55 55 52
75 75 74 73 72 71 68 65 67 64 64 61 64 62 68 68 62 64 67 65 68 66 63 59 57 57 56 57 55 57 55 55 56 57 56 57 57 58 57 59 59 55 52
74 70 72 73 70 70 47 52 62 65 63 62 63 65 64 61 59 55 56 57 66 65 62 59 57 56 56 57 57 56 55 54 52 57 55 53 58 59 67 69 52 51 50
68 67 71 72 69 67 47 49 53 66 65 62 61 60 60 62 61 62 53 54 54 54 61 65 61 59 56 59 58 56 56 58 55 55 56 52 59 63 66 62 50 49 49
66 64 70 70 69 62 47 47 51 66 64 63 61 60 59 60 61 62 63 62 63 65 66 67 66 63 63 62 60 59 57 55 55 57 63 56 63 64 65 64 50 49 48
64 66 70 69 68 62 46 47 58 64 63 61 61 61 60 59 49 50 62 59 60 58 52 51 51 48 47 49 55 58 55 58 55 59 64 64 63 63 65 65 62 49 47
70 71 68 69 57 62 46 47 58 63 60 59 58 58 51 56 46 48 62 63 58 58 58 55 54 51 53 52 52 62 66 66 64 63 66 66 64 66 62 63 64 62 61
MSLP
1010.09 1010.57 1011.14 1011.53 1011.94 1012.44 1012.62 1012.80 1012.92 1013.28 1013.53 1013.66 1013.62 1013.74 1013.66 1013.68 1013.77 1013.76 1013.66 1014.01 1014.07 1014.05 1014.10 1014.23 1014.19 1014.29 1014.53 1014.79 1015.04 1015.24 1015.40 1015.61 1015.77 1016.19 1016.87 1015.89 1017.35 1017.46 1017.63 1018.11 1018.48 1018.93 1019.27
1009.23 1010.01 1010.65 1011.18 1011.63 1011.61 1011.99 1012.41 1012.62 1012.90 1013.23 1013.33 1013.44 1013.43 1013.47 1013.40 1013.39 1013.53 1013.39 1013.57 1013.84 1013.82 1013.86 1013.96 1013.99 1014.05 1014.30 1014.57 1014.78 1015.01 1015.20 1015.41 1015.58 1015.80 1016.46 1016.74 1017.33 1017.21 1017.51 1017.97 1018.40 1018.83 1019.21
1008.81 1009.39 1010.10 1010.64 1011.03 1011.10 1011.05 1011.24 1011.71 1012.23 1012.92 1013.01 1013.09 1013.04 1013.06 1013.11 1013.00 1013.19 1013.21 1013.32 1013.33 1013.54 1013.56 1013.70 1013.78 1013.82 1014.10 1014.32 1014.61 1014.81 1015.05 1015.26 1015.41 1015.67 1015.89 1016.36 1016.70 1017.05 1017.43 1017.76 1018.13 1018.57 1019.04
1008.22 1008.92 1009.56 1009.88 1010.25 1010.86 1011.32 1011.96 1012.02 1011.68 1012.24 1012.54 1012.59 1012.65 1012.84 1012.78 1012.79 1012.94 1012.91 1012.89 1012.90 1012.86 1012.98 1013.35 1013.36 1013.58 1013.96 1014.24 1014.47 1014.60 1014.86 1015.12 1015.40 1015.63 1015.95 1016.18 1016.61 1016.96 1017.30 1017.68 1018.13 1018.48 1019.12
1007.85 1008.22 1008.75 1009.36 1009.87 1010.66 1011.47 1011.66 1011.72 1011.83 1011.67 1012.08 1012.18 1012.44 1012.61 1012.63 1012.59 1012.64 1012.57 1012.65 1012.63 1012.82 1012.64 1012.89 1013.13 1013.57 1013.88 1014.16 1014.28 1014.47 1014.68 1014.99 1015.22 1015.50 1015.91 1016.09 1016.53 1017.05 1017.01 1017.64 1018.18 1018.72 1019.38
1006.96 1007.58 1008.39 1009.23 1009.87 1010.40 1010.96 1011.39 1011.35 1011.51 1011.57 1011.85 1012.12 1012.46 1012.54 1012.31 1012.29 1012.34 1012.39 1012.30 1012.26 1012.45 1012.61 1012.88 1012.81 1013.13 1013.78 1014.00 1014.18 1014.24 1014.39 1014.79 1015.14 1015.45 1015.80 1016.09 1016.47 1016.88 1017.31 1017.66 1018.34 1018.98 1019.53
1006.40 1007.27 1007.82 1008.61 1009.41 1009.76 1010.18 1010.69 1010.98 1011.22 1011.59 1012.19 1012.44 1012.24 1011.92 1011.93 1011.98 1011.98 1012.08 1012.08 1012.04 1012.04 1012.34 1012.67 1012.89 1013.20 1013.23 1013.85 1014.06 1014.24 1014.41 1014.67 1015.02 1015.36 1015.66 1016.04 1016.48 1016.80 1017.42 1017.91 1018.47 1019.19 1020.09
1006.10 1006.86 1007.78 1008.43 1008.76 1008.95 1009.79 1010.24 1010.78 1011.26 1011.67 1012.05 1012.02 1012.01 1011.07 1011.18 1011.41 1011.69 1011.90 1011.96 1011.94 1011.70 1011.87 1012.35 1012.95 1013.16 1013.06 1013.21 1013.46 1014.10 1014.35 1014.53 1014.84 1015.18 1015.52 1015.95 1016.24 1016.78 1017.39 1018.01 1018.89 1019.54 1020.46
1005.96 1006.71 1007.14 1007.72 1008.43 1008.81 1009.28 1009.85 1010.59 1010.92 1011.11 1011.86 1012.01 1011.40 1011.10 1010.47 1010.90 1011.67 1011.98 1012.26 1012.16 1012.02 1011.99 1012.09 1012.56 1013.08 1012.99 1013.12 1013.54 1013.84 1014.23 1014.49 1014.74 1015.01 1015.36 1015.73 1016.30 1016.96 1017.58 1018.55 1019.53 1019.51 1020.41
1005.79 1006.41 1006.89 1007.57 1008.21 1008.81 1009.39 1009.74 1010.17 1010.74 1010.92 1010.89 1011.76 1011.67 1011.45 1011.15 1010.72 1011.19 1011.86 1012.28 1012.33 1012.08 1012.05 1012.28 1012.43 1012.72 1012.95 1012.96 1013.31 1013.59 1014.03 1014.37 1014.62 1014.89 1015.34 1015.91 1016.39 1017.07 1017.71 1018.65 1019.59 1019.67 1020.32
1005.60 1006.19 1006.79 1007.45 1007.91 1008.61 1009.11 1009.37 1009.98 1010.32 1010.38 1010.40 1010.67 1011.15 1011.24 1011.01 1011.00 1010.86 1011.40 1012.36 1012.54 1012.47 1012.53 1012.63 1012.63 1012.59 1012.67 1012.87 1012.98 1013.31 1013.91 1014.24 1014.56 1014.89 1015.33 1016.04 1016.83 1017.39 1018.22 1019.05 1019.69 1020.13 1020.58
1005.32 1006.13 1006.68 1007.19 1007.80 1008.45 1008.83 1009.21 1009.61 1009.84 1010.09 1010.33 1010.37 1010.44 1010.30 1010.27 1010.34 1010.85 1011.30 1012.28 1012.55 1012.79 1012.90 1012.81 1012.56 1012.36 1012.37 1012.66 1013.02 1013.41 1013.82 1014.13 1014.58 1014.99 1015.55 1016.16 1017.01 1017.77 1018.45 1019.14 1019.73 1020.25 1020.91
1005.18 1006.08 1006.62 1007.27 1007.76 1008.26 1008.57 1009.04 1009.28 1009.55 1009.86 1009.99 1010.10 1010.06 1010.18 1010.13 1010.27 1010.58 1010.87 1011.68 1012.17 1012.82 1013.08 1012.95 1012.87 1012.60 1012.34 1012.58 1012.78 1013.37 1013.72 1014.09 1014.59 1015.08 1015.76 1016.36 1017.21 1017.86 1018.56 1019.20 1019.79 1020.46 1021.04
1005.03 1006.03 1006.67 1007.21 1007.68 1008.01 1008.44 1008.77 1008.99 1009.20 1009.52 1009.75 1009.88 1010.02 1009.94 1009.96 1010.20 1010.35 1010.52 1011.30 1012.03 1012.50 1012.72 1012.72 1012.84 1012.40 1012.38 1012.70 1013.24 1013.57 1013.59 1014.17 1014.71 1015.09 1015.83 1016.67 1017.42 1018.29 1018.91 1019.47 1020.13 1020.63 1021.06
1005.37 1006.12 1006.62 1007.10 1007.53 1007.91 1008.28 1008.55 1008.67 1008.91 1009.26 1009.76 1009.74 1009.72 1009.82 1009.82 1010.04 1010.43 1010.50 1010.80 1011.09 1011.50 1012.07 1012.73 1012.70 1012.69 1012.50 1012.82 1013.48 1013.60 1013.51 1014.40 1014.97 1015.48 1016.27 1017.21 1017.96 1018.71 1019.25 1019.81 1020.35 1020.78 1021.24
1005.54 1006.18 1006.72 1007.13 1007.49 1007.76 1007.97 1008.18 1008.33 1008.56 1008.86 1009.43 1009.62 1009.50 1009.59 1009.62 1009.85 1010.12 1010.28 1010.81 1010.92 1011.01 1011.28 1012.01 1012.66 1012.84 1013.09 1013.35 1013.62 1013.80 1014.07 1014.55 1015.16 1016.02 1016.74 1017.66 1018.34 1018.97 1019.55 1020.07 1020.53 1021.03 1021.60
1005.83 1006.23 1006.61 1007.00 1007.19 1007.40 1007.59 1007.82 1008.03 1008.21 1008.71 1009.08 1009.23 1009.30 1009.23 1009.43 1009.42 1009.79 1010.16 1010.83 1010.82 1010.93 1010.79 1012.21 1012.68 1013.39 1013.79 1013.84 1014.04 1014.31 1014.65 1015.07 1015.87 1016.48 1017.24 1018.07 1018.59 1019.22 1019.79 1020.40 1020.98 1021.56 1022.09
1005.85 1006.17 1006.53 1006.70 1006.91 1007.12 1007.34 1007.49 1007.60 1007.99 1008.38 1008.59 1008.90 1009.14 1008.88 1009.05 1009.34 1009.70 1010.00 1010.50 1010.63 1010.93 1010.87 1011.95 1013.07 1013.66 1014.08 1014.32 1014.54 1014.79 1015.20 1015.84 1016.39 1017.18 1017.70 1018.33 1019.26 1020.01 1020.55 1021.01 1021.62 1022.13 1022.63
1005.96 1006.21 1006.40 1006.59 1006.72 1006.91 1007.09 1007.24 1007.65 1007.76 1008.01 1008.41 1008.72 1008.94 1008.65 1008.74 1009.12 1009.51 1009.84 1010.29 1010.64 1011.02 1011.29 1012.36 1013.27 1013.92 1014.49 1014.86 1015.14 1015.60 1016.07 1016.64 1017.51 1018.05 1018.69 1019.57 1020.33 1020.95 1021.39 1021.96 1022.23 1022.63 1023.07
1005.90 1006.14 1006.35 1006.54 1006.76 1006.99 1007.07 1007.15 1007.19 1007.45 1007.85 1008.26 1008.60 1008.62 1008.54 1008.58 1008.82 1009.42 1009.88 1010.21 1010.51 1010.93 1011.76 1012.63 1013.54 1014.17 1014.74 1015.38 1015.66 1016.05 1017.10 1017.75 1018.44 1019.17 1019.93 1020.61 1021.46 1021.66 1022.07 1022.52 1022.72 1022.99 1023.38
1005.85 1005.99 1006.36 1006.66 1006.96 1007.11 1007.41 1007.40 1007.16 1007.42 1007.81 1008.23 1008.53 1008.65 1008.74 1008.78 1009.20 1009.53 1009.75 1010.10 1010.33 1010.98 1011.88 1012.80 1013.61 1014.36 1015.10 1015.54 1016.09 1016.93 1017.59 1018.46 1019.52 1020.03 1020.82 1021.48 1021.85 1022.25 1022.65 1022.63 1023.09 1023.48 1023.84
1005.89 1006.35 1006.57 1006.71 1007.08 1007.34 1007.88 1007.84 1007.48 1007.74 1008.11 1008.39 1008.55 1008.64 1008.95 1009.39 1009.69 1009.97 1010.22 1010.42 1010.32 1010.91 1011.75 1012.56 1013.47 1014.16 1015.05 1015.64 1016.34 1017.07 1017.95 1018.83 1020.03 1020.98 1021.28 1022.02 1022.13 1022.51 1022.34 1022.44 1023.41 1023.82 1024.17
1006.32 1006.71 1006.71 1006.90 1007.29 1007.63 1008.08 1008.14 1007.90 1008.02 1008.17 1008.40 1008.52 1008.87 1009.27 1009.67 1009.92 1010.29 1010.68 1010.86 1011.30 1011.66 1011.90 1012.27 1013.03 1014.02 1014.83 1015.48 1016.24 1017.19 1018.18 1018.84 1019.67 1020.90 1021.19 1022.16 1022.35 1022.40 1022.70 1023.45 1023.97 1024.15 1024.27
1006.54 1006.94 1006.95 1007.18 1007.46 1008.05 1008.27 1008.36 1008.27 1008.20 1008.34 1008.54 1008.78 1009.00 1009.40 1009.80 1010.15 1010.48 1010.76 1011.30 1011.86 1012.30 1012.52 1012.64 1013.34 1014.16 1015.04 1015.88 1016.42 1017.20 1018.21 1019.01 1020.15 1020.87 1020.78 1021.60 1022.28 1022.35 1022.93 1023.40 1024.27 1024.36 1024.50
1006.77 1007.04 1007.11 1007.28 1007.60 1008.24 1008.59 1008.55 1008.41 1008.48 1008.64 1008.83 1009.12 1009.37 1009.55 1010.03 1010.46 1010.68 1010.99 1011.46 1012.20 1013.04 1013.39 1013.65 1014.22 1014.96 1015.69 1016.28 1016.65 1017.42 1018.47 1018.83 1019.84 1020.56 1020.82 1020.87 1021.82 1022.29 1022.73 1023.05 1023.74 1024.55 1024.71
1006.61 1007.00 1007.29 1007.43 1008.20 1008.38 1008.78 1008.80 1008.72 1008.87 1009.02 1009.24 1009.55 1009.86 1010.12 1010.47 1010.85 1011.10 1011.33 1011.56 1012.31 1013.28 1014.04 1014.87 1015.65 1016.22 1016.50 1017.08 1017.32 1017.30 1017.65 1018.06 1018.98 1019.73 1020.40 1020.44 1021.34 1021.58 1022.11 1022.84 1023.14 1023.75 1024.05
Wind_Speed
11 11 9 8 7 6 6 5 6 6 7 8 7 7 7 6 6 5 4 6 9 11 12 13 13 13 11 8 9 9 10 12 12 12 17 19 10 8 9 13 13 12 12
11 11 11 10 7 7 6 6 6 6 7 7 7 8 8 7 7 6 5 4 8 9 11 13 14 12 13 11 9 9 8 10 10 13 15 13 12 8 7 10 13 14 13
14 13 11 10 9 8 10 9 8 6 7 7 8 7 7 8 7 8 6 4 5 9 10 10 14 15 13 12 9 9 8 8 9 10 13 11 11 10 9 8 12 14 14
16 13 10 11 10 7 6 5 6 6 6 6 6 6 6 6 8 8 6 6 5 5 7 11 10 10 10 10 10 9 9 8 7 11 11 11 12 10 9 9 10 13 17
15 14 11 10 11 7 5 6 6 6 6 7 6 6 5 7 9 6 8 8 7 5 4 6 10 9 9 9 9 10 11 9 8 7 8 10 14 13 10 11 11 18 21
17 13 10 10 9 8 7 6 8 6 5 5 4 5 7 8 8 7 8 7 6 6 5 3 7 8 9 8 7 9 8 9 8 7 9 11 14 15 13 11 14 18 23
14 13 10 10 10 9 10 10 6 7 5 3 2 6 7 8 8 7 6 6 7 7 5 4 4 4 6 7 7 6 7 9 8 8 10 11 16 15 13 11 17 27 25
13 11 10 9 9 9 8 8 8 4 3 4 4 4 5 4 5 5 5 5 7 5 6 5 3 4 5 4 6 8 7 6 8 8 11 12 13 14 13 17 28 27 25
12 13 12 10 11 9 8 8 8 8 6 4 7 5 3 3 2 3 4 1 2 3 4 5 7 5 5 4 4 7 7 6 8 10 14 14 14 14 13 20 22 28 26
12 11 11 11 11 6 6 7 7 6 6 6 4 6 4 4 3 3 4 2 1 4 3 3 4 5 6 5 5 2 9 9 8 13 15 13 21 26 30 31 28 25 23
10 11 12 12 10 6 7 7 8 8 7 5 5 4 6 5 3 1 3 3 1 1 1 1 2 5 6 5 5 6 8 9 8 12 14 21 27 29 30 28 26 26 24
8 9 11 9 8 8 8 7 8 9 7 7 6 5 5 5 6 3 3 2 1 2 2 1 4 6 5 5 5 5 8 8 9 14 16 26 26 27 27 26 26 24 24
8 9 9 9 8 7 6 6 7 7 7 7 7 6 6 6 4 3 4 4 3 2 1 1 2 3 4 4 5 8 8 9 10 15 15 22 27 27 26 24 25 23 20
8 10 8 8 6 6 6 6 5 5 6 6 8 7 5 6 5 4 4 5 3 2 2 4 1 3 4 3 3 2 7 8 14 19 21 23 25 23 22 22 21 20 19
8 8 7 6 6 6 7 6 5 6 6 5 6 6 6 5 6 5 5 5 5 5 4 4 3 3 3 4 4 3 5 12 19 24 24 23 22 20 20 18 14 13 14
8 8 7 7 6 6 6 7 6 7 7 3 2 6 7 5 6 6 6 3 5 3 5 4 3 4 4 4 5 4 6 14 24 23 25 21 18 15 15 15 14 14 13
9 9 8 7 6 6 6 6 6 6 6 5 3 8 8 7 6 6 6 4 5 5 6 4 3 6 4 6 7 7 8 10 12 24 22 21 19 17 17 16 13 12 12
9 8 7 6 6 5 4 5 6 5 6 6 5 6 7 6 7 7 7 9 5 4 5 10 3 3 4 6 8 10 8 9 12 21 23 23 19 16 12 14 11 12 12
9 7 6 5 4 4 3 4 5 6 8 8 9 5 5 7 8 7 7 8 8 5 7 8 4 3 3 7 9 10 11 12 10 24 21 19 13 14 14 11 11 12 12
8 6 4 4 4 1 2 4 4 6 6 6 5 7 7 7 7 8 7 9 10 9 10 9 7 6 4 5 8 11 11 10 10 10 13 12 10 14 12 10 12 12 11
6 5 6 5 4 3 4 4 4 5 8 5 4 3 5 5 5 7 7 10 13 11 9 9 6 7 6 6 10 9 11 10 9 6 8 7 7 6 4 9 11 11 10
6 7 7 5 5 3 6 4 3 6 6 5 5 4 6 8 7 7 7 5 10 15 14 10 7 10 8 10 10 11 12 11 6 4 6 5 5 6 6 5 8 10 10
6 6 6 5 4 4 6 2 4 5 5 4 5 6 6 6 8 9 10 12 11 12 10 13 14 10 12 14 13 13 11 9 7 5 9 6 4 7 5 5 6 8 10
6 6 5 5 4 4 3 2 4 6 6 6 5 6 7 8 9 12 12 13 11 11 12 9 12 12 14 12 12 11 11 10 9 5 5 5 4 6 4 5 4 6 8
6 5 5 5 5 4 3 4 5 5 6 6 5 6 7 9 9 11 13 14 13 9 10 13 15 15 15 14 14 12 10 11 8 7 2 7 5 5 4 4 5 6 6
6 5 5 4 6 5 2 3 4 5 5 4 5 6 9 10 12 12 13 14 13 12 14 13 12 13 13 11 8 7 12 12 11 7 6 5 8 6 4 4 5 7 7
Wind_Direction
198 195 199 197 191 195 211 218 223 227 234 234 237 246 252 252 251 259 262 228 242 246 238 244 240 234 224 215 221 218 212 225 223 200 180 213 183 179 188 191 184 185 170
196 192 197 196 190 193 201 215 217 224 236 239 237 242 252 257 247 249 252 242 253 256 243 234 235 239 232 220 209 217 219 209 221 204 194 192 184 170 174 184 189 183 168
194 193 198 196 195 194 195 193 191 195 229 232 243 247 250 247 247 245 247 246 238 229 241 238 244 243 227 222 211 213 216 209 207 210 210 195 176 169 169 170 181 184 164
194 193 197 203 201 195 193 197 212 192 221 232 247 253 251 255 252 242 249 254 250 259 213 246 242 209 213 213 216 221 211 202 196 206 224 193 176 165 163 163 169 162 145
195 201 196 204 203 195 190 203 204 214 215 229 244 256 257 252 251 248 251 250 235 242 246 248 212 205 213 215 226 227 212 199 207 202 206 199 170 159 181 145 153 148 141
202 199 188 198 194 191 201 204 215 203 230 245 261 282 279 260 251 236 242 244 235 232 228 228 202 204 205 211 230 239 214 206 204 188 187 185 166 174 161 144 154 153 135
199 195 187 177 190 195 197 204 204 208 212 222 282 257 249 240 231 224 231 234 227 213 214 190 207 221 184 206 224 228 211 213 201 192 183 175 174 171 158 162 148 129 125
192 186 180 184 180 185 189 200 195 175 212 194 231 245 265 193 208 211 216 226 220 204 201 183 176 226 206 219 203 199 212 206 197 185 164 169 178 152 151 145 137 131 131
184 180 174 176 180 184 190 188 193 190 222 185 216 261 221 237 165 158 175 155 248 213 196 183 172 210 212 214 189 195 197 198 188 172 164 169 161 153 153 132 133 133 132
174 165 171 172 176 159 165 188 183 193 220 215 191 226 250 298 262 165 154 124 323 235 194 177 180 195 203 211 208 212 175 188 184 167 170 166 129 129 127 133 132 127 134
156 160 165 169 165 170 179 188 182 198 204 217 208 175 219 224 261 238 121 143 130 72 48 185 193 208 195 204 199 173 185 181 173 153 159 139 135 134 136 138 140 143 145
142 153 157 161 164 170 177 182 192 196 198 206 208 205 208 216 225 203 125 80 108 77 34 282 212 190 181 185 185 143 178 171 165 149 143 139 141 142 141 144 146 149 158
148 153 158 161 166 173 169 182 189 197 201 207 209 214 224 234 235 203 171 138 148 91 98 149 183 185 159 190 191 195 175 169 146 143 148 148 145 146 148 146 144 149 161
144 150 154 156 162 166 177 187 196 209 202 211 210 214 221 228 219 216 170 144 132 122 158 138 158 161 156 153 82 170 153 151 140 138 133 139 141 142 145 148 153 158 165
138 145 145 152 169 183 192 194 208 213 208 204 225 217 222 218 217 193 193 187 166 159 157 141 150 157 161 145 123 151 158 142 139 140 137 140 141 152 153 155 159 140 130
135 143 151 165 173 186 194 202 213 218 204 173 221 227 215 209 205 196 196 164 188 181 156 151 144 137 106 111 135 135 135 144 137 139 139 144 145 135 132 131 127 125 130
142 150 159 168 179 195 205 205 218 205 171 175 184 245 210 194 194 187 173 156 191 193 159 126 104 100 84 102 100 109 121 120 123 129 128 123 114 115 122 113 100 103 108
142 148 159 169 183 190 202 217 215 162 164 166 209 237 214 180 184 174 180 184 181 172 156 143 104 113 89 96 104 106 104 113 122 116 117 119 116 119 108 94 101 108 116
146 155 166 186 192 208 221 235 219 184 182 189 203 217 206 179 160 165 174 174 172 167 145 128 108 94 93 107 101 92 98 100 105 109 102 103 95 101 94 102 121 114 119
155 163 173 137 146 116 348 318 280 191 167 180 196 203 205 195 165 164 167 165 159 145 139 128 119 119 113 111 105 109 100 101 102 97 85 91 93 86 101 114 114 116 116
165 175 137 140 96 46 24 352 93 134 143 131 170 177 198 184 156 174 168 166 159 145 138 128 128 124 124 133 122 119 108 107 93 104 106 104 94 92 121 100 106 124 132
147 123 138 121 84 46 3 330 103 121 137 155 159 161 132 126 131 130 113 141 162 152 146 143 142 143 136 126 129 128 128 128 115 105 109 80 103 117 123 122 83 135 142
133 131 134 108 89 63 14 83 103 119 133 146 142 127 116 121 137 128 103 102 84 82 136 154 148 146 141 143 141 131 133 132 122 130 119 92 147 124 112 116 139 146 153
129 137 129 111 102 62 26 134 141 118 114 122 128 131 129 133 136 136 130 120 123 128 132 146 145 137 137 139 134 127 120 106 99 104 139 117 167 132 140 123 143 164 165
137 145 135 122 102 96 82 173 148 115 106 104 108 121 126 130 136 132 126 123 120 98 67 89 103 107 111 115 130 124 129 135 130 148 176 138 163 137 167 161 151 184 169
129 142 131 100 81 117 111 167 133 116 98 86 78 101 115 133 134 129 135 137 125 125 119 111 104 97 109 112 113 138 146 151 142 151 155 147 160 160 171 192 192 178 195